Regional Weather Roundup
Issued by NWS

Home | Current Version | Previous Version | Text Only | Print | Product List | Glossary Off
Versions: 1 2 3 4 5 6 7 8 9 10 11 12 13 14 15 16 17 18 19 20 21 22 23 24 25 26 27 28 29 30 31 32 33 34 35 36 37 38 39 40 41 42 43 44 45 46 47 48 49 50

000
ASUS45 KCYS 220210
RWRWY

WYOMING REGIONAL WEATHER ROUNDUP
NATIONAL WEATHER SERVICE CHEYENNE WY
800 PM MDT SUN SEP 21 2014

NOTE:  "FAIR" INDICATES FEW OR NO CLOUDS BELOW 12,000 FEET
WITH NO SIGNIFICANT WEATHER AND/OR OBSTRUCTIONS TO VISIBILITY.

WYZ001-220300-
YELLOWSTONE NATIONAL PARK

CITY           SKY/WX    TMP DP  RH WIND       PRES   REMARKS
LK YELLOWSTONE   N/A     54  46  74 CALM      30.33S
W YELLOWSTONE  NOT AVBL

$$
WYZ002>013-054>058-071-098>099-220300-
NORTHERN WYOMING

CITY           SKY/WX    TMP DP  RH WIND       PRES   REMARKS
JACKSON        NOT AVBL
CODY             N/A    N/A N/A N/A MISG        N/A
GREYBULL       CLOUDY    70  44  39 CALM      30.10F
WORLAND        CLOUDY    68  45  43 SE3       30.12S
SHERIDAN       PTCLDY    66  44  45 SE3       30.14F
BUFFALO        MOCLDY    63  43  48 S7        30.23S
GILLETTE       PTCLDY    54  41  61 SE6       30.22R
HULETT         FAIR      61  41  48 MISG      30.25
NEWCASTLE      FAIR      61  34  36 SE9       30.27

$$
WYZ014>020-022>026-101>103-220300-
CENTRAL WYOMING

CITY           SKY/WX    TMP DP  RH WIND       PRES   REMARKS
BIG PINEY      LGT RAIN  53  51  93 NW3       30.31R
PINEDALE       CLOUDY    52  50  93 W7        30.30S
DUBOIS         FAIR      57  36  44 S5        30.30S
LANDER         CLOUDY    67  41  38 W7        30.19S
RIVERTON       CLOUDY    67  38  34 N8        30.19F
CASPER         MOCLDY    66  42  41 E10       30.22R
DOUGLAS        MOCLDY    63  41  44 SE12      30.27R

$$
WYZ021-027>030-104>119-220300-
SOUTHERN WYOMING

CITY           SKY/WX    TMP DP  RH WIND       PRES   REMARKS
EVANSTON       MOCLDY    51  48  89 E9        30.29R
KEMMERER       CLOUDY    52  50  93 CALM      30.30S
FORT BRIDGER     N/A     51  51  99 CALM      30.32R
ROCK SPRINGS   LGT RAIN  53  51  93 SW6       30.32R
DIXON          MOCLDY    62  47  59 SW10      30.35R
RAWLINS        CLOUDY    65  43  44 SE14      30.29S
SARATOGA       FAIR      59  46  63 S14       30.34R
LARAMIE        CLOUDY    54  48  80 SW8       30.37F
CHEYENNE       CLOUDY    62  42  47 SE13      30.34R
TORRINGTON     MOCLDY    63  41  44 E14       30.26R
PINE BLUFFS    FAIR      61  41  48 SE8       30.32S

$$


USA.gov is the U.S. government's official web portal to all federal, state and local government web resources and services.